Regional Weather Roundup
Issued by NWS

Home | Current Version | Previous Version | Graphics & Text | Print | Product List | Glossary Off
Versions: 1 2 3 4 5 6 7 8 9 10 11 12 13 14 15 16 17 18 19 20 21 22 23 24 25 26 27 28 29 30 31 32 33 34 35 36 37 38 39 40 41 42 43 44 45 46 47 48 49 50

000
ASUS43 KMKX 280821
RWRWI

WISCONSIN REGIONAL WEATHER ROUNDUP
NATIONAL WEATHER SERVICE MILWAUKEE/SULLIVAN WI
300 AM CDT WED SEP 28 2016

NOTE: "FAIR" INDICATES FEW OR NO CLOUDS BELOW 12,000 FEET WITH NO
SIGNIFICANT WEATHER AND/OR OBSTRUCTIONS TO VISIBILITY.

WIZ001-002-006>008-014>016-023>028-280900-
NORTHWEST WISCONSIN

CITY           SKY/WX    TMP DP  RH WIND       PRES   REMARKS
SUPERIOR ARPT  MOCLDY    52  48  87 N8        29.94R
ASHLAND        LGT RAIN  52  51  97 NE13G21   29.90R FOG
HAYWARD        CLOUDY    51  48  89 N8        29.89R
SIREN          CLOUDY    47  46  97 NW5       29.93R
CUMBERLAND     CLOUDY    46  45  93 N10       29.91R
RICE LAKE      CLOUDY    50  46  88 N8        29.91R
CHETEK         NOT AVBL
LADYSMITH      CLOUDY    51  49  93 NW9       29.87R
EAU CLAIRE     CLOUDY    50  47  89 N10       29.87R
MENOMONIE      CLOUDY    49  49 100 W8        29.89R
NEW RICHMOND   CLOUDY    48  47  96 NW8       29.93R
OSCEOLA        CLOUDY    49  49 100 NW5       29.97R
$$

WIZ003>005-009-010-017-018-280900-
NORTH CENTRAL WISCONSIN

CITY           SKY/WX    TMP DP  RH WIND       PRES   REMARKS
MANITOWISH WTR NOT AVBL
ARBOR VITAE    MOCLDY    52  51  97 N5        29.81R
WOODRUFF       MOCLDY    52  51  97 N5        29.81R
RHINELANDER    PTCLDY    49  49 100 N3        29.80R
EAGLE RIVER    CLOUDY    49  49 100 CALM      29.80R
LAND O LAKES   MOCLDY    50  49  97 N6        29.83R
PHILLIPS       DRIZZLE   48  48 100 NW5       29.82S
TOMAHAWK       MOCLDY    47  46  95 NW6       29.81R
MEDFORD        CLOUDY   N/A N/A N/A NW10      29.81S
MERRILL        CLOUDY    49  49  98 N3        29.81R
$$

WIZ029-030-035-036-043>047-280900-
CENTRAL WISCONSIN

CITY           SKY/WX    TMP DP  RH WIND       PRES   REMARKS
WAUSAU         CLOUDY    49  47  93 NW5       29.79R
MOSINEE        CLOUDY    46  46 100 NW6       29.82R
MARSHFIELD     CLOUDY    50  46  86 NW9       29.81R
STEVENS POINT  CLOUDY    47  47 100 NW6       29.81R
WAUPACA        CLOUDY    51  50  96 NW5       29.79S
WAUTOMA        CLOUDY    49  47  93 NW7       29.81R
WISC RAPIDS    CLOUDY    49  48  97 NW7       29.82R
CAMP DOUGLAS   MOCLDY    49  47  95 NW8       29.82S
$$

WIZ011>013-019>022-031-037>040-048>050-280900-
NORTHEAST WISCONSIN

CITY           SKY/WX    TMP DP  RH WIND       PRES   REMARKS
ANTIGO         CLOUDY    47  47 100 CALM      29.79R
SHAWANO        CLOUDY    51  49  90 CALM      29.78S
OCONTO         NOT AVBL
STURGEON BAY   CLOUDY    52  49  89 NW7       29.77S
GREEN BAY      CLOUDY    50  50 100 NW5       29.78R
MANITOWOC      CLOUDY    49  47  93 NW3       29.78R
APPLETON       CLOUDY    48  48 100 NW8       29.77R
CLINTONVILLE   NOT AVBL
OSHKOSH        CLOUDY    50  48  93 NW7       29.78R
$$

WIZ032>034-041-042-053>061-280900-
SOUTHWEST WISCONSIN

CITY           SKY/WX    TMP DP  RH WIND       PRES   REMARKS
LA CROSSE      CLOUDY    52  48  86 N9        29.86R
SPARTA         CLOUDY    48  47  97 NW5       29.86R
VIROQUA        CLOUDY    47  47  98 N8        29.85R
BOSCOBEL       CLOUDY    51  46  83 NW5       29.85R
PRAIRIE DU CHI MOCLDY    50  44  78 NW7       29.85R
PLATTEVILLE    CLOUDY    49  48  99 NW7       29.84R
$$

WIZ056-057-062-063-064-067-068-280900-
SOUTH CENTRAL WISCONSIN

CITY           SKY/WX    TMP DP  RH WIND       PRES   REMARKS
REEDSBURG      NOT AVBL
BARABOO/DELLS  CLOUDY    48  46  95 NW6       29.81R
LONE ROCK      CLOUDY    50  46  86 NW6       29.84R
MINERAL POINT  CLOUDY    50  46  87 NW5       29.82S
MADISON        CLOUDY    49  48  97 NW3       29.80S
MIDDLETON      CLOUDY    49  49 100 NW6       29.82R
WATERTOWN      CLOUDY    48  48 100 W5        29.79S
MONROE         CLOUDY    46  46 100 NW7       29.81R
JANESVILLE     CLOUDY    50  48  93 NW5       29.79S
$$

WIZ051-052-058>065-066-070>072-280900-
SOUTHEAST WISCONSIN

CITY           SKY/WX    TMP DP  RH WIND       PRES   REMARKS
MILWAUKEE      LGT RAIN  51  47  86 NW6       29.78F
WAUKESHA       CLOUDY    46  45  93 W3        29.80R
MILWAUKEE/TIMM DRIZZLE   48  45  87 CALM      29.79S
RACINE         LGT RAIN  50  47  89 NW6       29.79F
BURLINGTON     DRIZZLE   47  46  93 CALM      29.79S
KENOSHA        CLOUDY    50  47  89 CALM      29.79S
FOND DU LAC    CLOUDY    50  48  93 NW7       29.78R
SHEBOYGAN      CLOUDY    48  47  96 CALM      29.78R
WEST BEND      CLOUDY    48  46  93 W5        29.78S
JUNEAU         CLOUDY    48  47  97 NW3       29.80R
$$

LSZ147-162-280900-
LAKE SUPERIOR

STATION/POSITION TIME  TEMP    WIND        PRES    WAVE
                       AIR SEA DIR/SP/G            HT/PER
                 (UTC) (F)     (DEG/KT/KT) (MB)    (FT/S)
W MID LAKE BUOY  0750   56 53   20/ 21/ 25 1011.6R   6/ 6
DEVILS ISLAND    0800   53      10/ 19/ 20 1013.4R
SAXON HARBOR     0714   56      10/ 19/ 25 1011.2R
$$

LMZ867-665-643>646-280900-
LAKE MICHIGAN

STATION/POSITION TIME  TEMP    WIND        PRES    WAVE
                       AIR SEA DIR/SP/G            HT/PER
                 (UTC) (F)     (DEG/KT/KT) (MB)    (FT/S)
CHAMBERS ISLAND  0700   53     300/  5/  8 1007.8R
S GREEN BAY BUOY 0800   54 62  330/ 10/ 12 1008.1
N MID LAKE BUOY  0750   57 66   90/ 10/ 12 1007.4R   2/ 6
NORTHPORT PIER   0700   55     300/  6/ 10 1007.8R
SISTER BAY       0738   53      30/  4/  5   N/A
KEWAUNEE LAKESHO 0700   49     310/  3/  5 1007.4R
SHEBOYGAN LAKESH 0800   50     270/  5/  7 1008.2R
PORT WASHINGTON  0700   51     250/  3/  4 1009.1S
ATWATER BUOY     0800   51 54  260/  4/  6 1008.6F
MILWAUKEE LAKESH 0710   51     280/  5/  6   N/A
S MID LAKE BUOY  0750   56 69  290/ 10/ 14 1008.0F   2/ 4
KENOSHA   LAKESH 0800   51      CALM  /  2 1008.5F
$$

TC  - TEMPERATURE IN CELSIUS
VSB - VISIBILITY IN STATUTE MILES
WCI - WIND CHILL INDEX
HX  - HEAT INDEX




USA.gov is the U.S. government's official web portal to all federal, state and local government web resources and services.